User: anonymous   Login
Location: Whitehorse
(60.7170°N, 135.0500°W)
Time: 20:18:08
(UTC-07:00)
Language:

Cosmos 2219 Rocket - Orbit

View from above orbital plane
View from above orbital plane
View from above satellite
View from above satellite

Ground track
Ground track

The orbit data is extracted from the following two-line orbital elements,

1 22220U 92076B   16145.56592369 -.00000242  00000-0 -97723-4 0  9996
2 22220  70.9983 157.2625 0011676 154.7365 348.5448 14.16398474215748
Epoch (UTC): 24 May 2016 13:34:55
Eccentricity: 0.0011676
inclination: 70.9983°
perigee height: 829 km
apogee height: 846 km
right ascension of ascending node: 157.2625°
argument of perigee: 154.7365°
revolutions per day: 14.16398474
mean anomaly at epoch: 348.5448°
orbit number at epoch: 21574

The dashed part of the orbit path shows where the satellite is in the earth's shadow,  

DLR